Location: *
(32.8667°N, 13.1833°E)
Time: 07:15:29
(UTC+00:00)

ARGOS - Pass Details

Date: 18 July 2019
Orbit: 819 x 835 km, 98.5° (Epoch: 25 August)

Event Time Altitude Azimuth Distance (km) Brightness Sun altitude
Exits shadow 19:57:49 10° 190° (S) 2,405 5.3 -18.7°
Maximum altitude 20:02:50 43° 261° (W) 1,162 4.2 -19.5°
Drops below altitude 10° 20:07:57 10° 332° (NNW) 2,442 6.7 -20.3°
Sets 20:10:26 0° 339° (NNW) 3,377 7.5 -20.7°
